Myrtle Beach, SC

3:37 PM EDT on March 30, 2017 (GMT -0400)
Myrtle Beach International

Weather History for KMYR - October, 2013

Change the Weather History Date:

Wednesday, October 16, 2013

  Actual Average Record
Temperature  
Mean Temperature 66 °F -  
Max Temperature 71 °F 72 °F 86 °F (2008)
Min Temperature 59 °F 53 °F 40 °F (1954)
Growing Degree Days 16 (Base 50)    
Moisture  
Dew Point 62 °F    
Average Humidity 86    
Maximum Humidity 100    
Minimum Humidity 69    
Precipitation  
Precipitation 0.00 in - - ()
Sea Level Pressure  
Sea Level Pressure 30.01 in    
Wind  
Wind Speed 6 mph (North)    
Max Wind Speed 10 mph    
Max Gust Speed -    
Visibility 10 miles    
Events      
Averages and records for this station are not official NWS values.
T = Trace of Precipitation, MM = Missing Value Source: NWS Daily Summary

Daily Weather History Graph

Daily Weather History Graph

Search for Another Location

Airport or City:

Trip Planner

Search our weather history database for the weather conditions in past years. The results will help you decide how hot, cold, wet, or windy it might be!

Date:

Astronomy

Oct. 16, 2013 Rise Set
Actual Time 7:21 AM EDT 6:40 PM EDT
Civil Twilight 6:56 AM EDT 7:05 PM EDT
Nautical Twilight 6:27 AM EDT 7:34 PM EDT
Astronomical Twilight 5:58 AM EDT 8:03 PM EDT
Moon 5:14 PM EDT (10/16) 4:53 AM EDT (10/16)
Length of Visible Light 12h 09m
Length of Day
11h 18m
Waxing Gibbous, 94% of the Moon is Illuminated
Oct 16
Waxing Gibbous
Oct 18
Full
Oct 26
Last Quarter
Nov 3
New
Nov 10
First Quarter

Hourly Weather History & Observations

Time (EDT) Temp. Dew Point Humidity Pressure Visibility Wind Dir Wind Speed Gust Speed Precip Events Conditions
12:15 AM 64.4 °F 62.6 °F 94% 30.04 in 10.0 mi NNE 6.9 mph - N/A   Clear
12:35 AM 64.4 °F 62.6 °F 94% 30.04 in 10.0 mi NNE 4.6 mph - N/A   Mostly Cloudy
12:55 AM 64.4 °F 62.6 °F 94% 30.04 in 10.0 mi NNE 5.8 mph - N/A   Overcast
1:15 AM 64.4 °F 62.6 °F 94% 30.04 in 10.0 mi North 6.9 mph - N/A   Overcast
1:35 AM 64.4 °F 62.6 °F 94% 30.04 in 10.0 mi North 5.8 mph - N/A   Overcast
1:55 AM 66.2 °F 62.6 °F 88% 30.03 in 10.0 mi North 5.8 mph - N/A   Overcast
2:15 AM 66.2 °F 62.6 °F 88% 30.03 in 10.0 mi North 5.8 mph - N/A   Overcast
2:35 AM 66.2 °F 62.6 °F 88% 30.03 in 10.0 mi North 6.9 mph - N/A   Overcast
2:55 AM 66.2 °F 62.6 °F 88% 30.03 in 10.0 mi North 5.8 mph - N/A   Overcast
3:15 AM 66.2 °F 62.6 °F 88% 30.02 in 10.0 mi North 8.1 mph - N/A   Overcast
3:35 AM 66.2 °F 62.6 °F 88% 30.02 in 10.0 mi North 8.1 mph - N/A   Overcast
3:55 AM 66.2 °F 62.6 °F 88% 30.01 in 10.0 mi North 6.9 mph - N/A   Overcast
4:15 AM 66.2 °F 62.6 °F 88% 30.01 in 10.0 mi NNE 8.1 mph - N/A   Overcast
4:35 AM 66.2 °F 62.6 °F 88% 30.01 in 10.0 mi NNE 5.8 mph - N/A   Overcast
4:55 AM 66.2 °F 62.6 °F 88% 30.02 in 10.0 mi NNE 5.8 mph - N/A   Overcast
5:15 AM 64.4 °F 62.6 °F 94% 30.02 in 10.0 mi North 5.8 mph - N/A   Overcast
5:35 AM 64.4 °F 62.6 °F 94% 30.01 in 10.0 mi NNE 6.9 mph - N/A   Overcast
5:45 AM 64.4 °F 62.6 °F 94% 30.00 in 10.0 mi NE 6.9 mph - N/A   Overcast
6:45 AM 64.4 °F 62.6 °F 94% 30.01 in 10.0 mi NNE 6.9 mph - N/A   Overcast
7:45 AM 64.4 °F 60.8 °F 88% 30.03 in 10.0 mi North 5.8 mph - N/A   Overcast
8:45 AM 64.4 °F 60.8 °F 88% 30.04 in 10.0 mi North 8.1 mph - N/A   Overcast
9:45 AM 66.2 °F 62.6 °F 88% 30.04 in 10.0 mi North 9.2 mph - N/A   Overcast
10:50 AM 66.2 °F 62.6 °F 88% 30.04 in 10.0 mi NNE 6.9 mph - N/A   Overcast
11:45 AM 68.0 °F 62.6 °F 83% 30.04 in 10.0 mi North 9.2 mph - N/A   Overcast
12:45 PM 69.8 °F 60.8 °F 73% 30.02 in 10.0 mi NNW 8.1 mph - N/A   Overcast
1:47 PM 71.6 °F 60.8 °F 69% 30.00 in 10.0 mi North 10.4 mph - N/A   Overcast
2:53 PM 71.6 °F 60.8 °F 69% 29.98 in 10.0 mi NNW 6.9 mph - N/A   Overcast
3:45 PM 71.6 °F 60.8 °F 69% 29.97 in 10.0 mi North 8.1 mph - N/A   Overcast
4:45 PM 71.6 °F 60.8 °F 69% 29.97 in 10.0 mi North 9.2 mph - N/A   Overcast
5:45 PM 71.6 °F 62.6 °F 73% 29.96 in 10.0 mi NNE 6.9 mph - N/A   Mostly Cloudy
6:45 PM 69.8 °F 62.6 °F 78% 29.98 in 10.0 mi NNE 6.9 mph - N/A   Mostly Cloudy
7:45 PM 68.0 °F 62.6 °F 83% 29.98 in 10.0 mi NNE 6.9 mph - N/A   Scattered Clouds
8:45 PM 64.4 °F 59.0 °F 83% 30.00 in 10.0 mi Calm Calm - N/A   Clear
9:45 PM 62.6 °F 62.6 °F 100% 30.01 in 10.0 mi Calm Calm - N/A   Clear
11:15 PM 60.8 °F 57.2 °F 88% 30.01 in 5.0 mi Calm Calm - N/A   Clear
11:35 PM 60.8 °F 57.2 °F 88% 30.00 in 3.0 mi Calm Calm - N/A   Clear
11:55 PM 59.0 °F 55.4 °F 88% 30.00 in 4.0 mi Calm Calm - N/A   Clear